#timestamp,LO_Frequency,Hit,Temp,Hum 
1478527215.3,286046994.7,N,0.0,0.0
1478527235.2,286046994.5,N,0.0,0.0
1478527255.0,286046994.3,N,0.0,0.0
1478527255.9,286046994.3,N,0.0,0.0
1478527275.8,286046993.9,N,0.0,0.0
1478527295.6,286046995.1,N,0.0,0.0
1478527315.4,286046994.9,N,0.0,0.0
1478527335.3,286046995.5,N,0.0,0.0
1478527355.1,286046996.4,N,0.0,0.0
1478527375.8,286046995.8,N,0.0,0.0
1478527395.7,286046995.4,N,0.0,0.0
1478527415.5,286046994.9,N,0.0,0.0
1478527435.4,286046999.4,N,0.0,0.0
1478527455.2,286046998.6,N,0.0,0.0
1478527475.0,286046998.2,N,0.0,0.0
1478527475.9,286046998.2,N,0.0,0.0
1478527495.8,286046998.7,N,0.0,0.0
1478527515.6,286046999.3,N,0.0,0.0
1478527535.4,286046997.7,N,0.0,0.0
1478527555.3,286046997.6,N,0.0,0.0
1478527575.1,286046994.9,N,0.0,0.0
1478527595.8,286046995.2,N,0.0,0.0
1478527615.7,286046994.9,N,0.0,0.0
1478527635.5,286046997.8,N,0.0,0.0
1478527655.4,286046995.3,N,0.0,0.0
1478527675.2,286046995.5,N,0.0,0.0
1478527695.0,286046998.0,N,0.0,0.0
1478527695.9,286046998.0,N,0.0,0.0
1478527715.8,286046999.1,N,0.0,0.0
1478527735.6,286046999.6,N,0.0,0.0
1478527755.4,286046999.2,N,0.0,0.0
1478527775.3,286046998.2,N,0.0,0.0
1478527795.1,286047001.2,N,0.0,0.0
1478527815.8,286047000.6,N,0.0,0.0
1478527835.7,286047002.4,N,0.0,0.0
1478527855.5,286047001.2,N,0.0,0.0
1478527875.3,286046998.6,N,0.0,0.0
1478527895.2,286047000.9,N,0.0,0.0
1478527915.0,286046998.4,N,0.0,0.0
1478527915.9,286046998.4,N,0.0,0.0
1478527935.8,286046997.0,N,0.0,0.0
1478527955.6,286046997.7,N,0.0,0.0
1478527975.4,286046998.0,N,0.0,0.0
1478527995.3,286046997.5,N,0.0,0.0
1478528015.1,286046995.4,N,0.0,0.0
1478528035.8,286046999.6,N,0.0,0.0
1478528055.7,286046997.1,N,0.0,0.0
1478528075.5,286046997.1,N,0.0,0.0
1478528095.4,286046997.5,N,0.0,0.0
1478528115.2,286046999.0,N,0.0,0.0
1478528135.0,286046997.5,N,0.0,0.0
1478528135.9,286046997.5,N,0.0,0.0
1478528155.8,286046998.6,N,0.0,0.0
1478528175.6,286046999.9,N,0.0,0.0
1478528195.4,286047002.8,N,0.0,0.0
1478528215.3,286046999.9,N,0.0,0.0
1478528235.1,286046998.5,N,0.0,0.0
1478528255.8,286047002.7,N,0.0,0.0
1478528275.7,286046997.1,N,0.0,0.0
1478528295.5,286046998.6,N,0.0,0.0
1478528315.4,286046999.1,N,0.0,0.0
1478528335.2,286046996.5,N,0.0,0.0
1478528355.0,286046997.2,N,0.0,0.0
1478528355.9,286046997.2,N,0.0,0.0
1478528375.8,286046996.9,N,0.0,0.0
1478528395.6,286046999.4,N,0.0,0.0
1478528415.4,286046999.3,N,0.0,0.0
1478528435.3,286047001.1,N,0.0,0.0
1478528455.1,286046999.2,N,0.0,0.0
1478528475.8,286046998.3,N,0.0,0.0
1478528495.7,286047001.1,N,0.0,0.0
1478528515.5,286047000.2,N,0.0,0.0
1478528535.4,286047002.1,N,0.0,0.0
1478528555.2,286047001.4,N,0.0,0.0
1478528575.0,286047003.4,N,0.0,0.0
1478528575.9,286047003.4,N,0.0,0.0
1478528595.8,286047004.2,N,0.0,0.0
1478528615.6,286047001.9,N,0.0,0.0
1478528635.4,286047001.4,N,0.0,0.0
1478528655.3,286046999.8,N,0.0,0.0
1478528675.1,286047001.2,N,0.0,0.0
1478528695.9,286046999.0,N,0.0,0.0
1478528715.7,286047001.2,N,0.0,0.0
1478528735.5,286047000.5,N,0.0,0.0
1478528755.4,286047001.1,N,0.0,0.0
1478528775.2,286046999.0,N,0.0,0.0
1478528795.0,286046999.9,N,0.0,0.0
1478528795.9,286046999.9,N,0.0,0.0
1478528815.8,286046999.4,N,0.0,0.0
1478528835.6,286046999.5,N,0.0,0.0
1478528855.4,286047001.9,N,0.0,0.0
1478528875.3,286047001.4,N,0.0,0.0
1478528895.1,286047002.4,N,0.0,0.0
1478528915.9,286047001.5,N,0.0,0.0
1478528935.7,286047003.6,N,0.0,0.0
1478528955.5,286047004.3,N,0.0,0.0
1478528975.4,286047004.1,N,0.0,0.0
1478528995.2,286047001.3,N,0.0,0.0
1478529015.0,286047001.4,N,0.0,0.0
1478529015.9,286047001.4,N,0.0,0.0
1478529035.8,286047004.4,N,0.0,0.0
1478529055.6,286047001.9,N,0.0,0.0
1478529075.4,286047001.4,N,0.0,0.0
1478529095.3,286047002.0,N,0.0,0.0
1478529115.1,286047004.4,N,0.0,0.0
1478529135.9,286047001.5,N,0.0,0.0
1478529155.7,286047003.1,N,0.0,0.0
1478529175.5,286047004.4,N,0.0,0.0
1478529195.4,286047004.2,N,0.0,0.0
1478529215.2,286047002.7,N,0.0,0.0
1478529235.0,286047001.9,N,0.0,0.0
1478529235.9,286047001.9,N,0.0,0.0
1478529255.8,286047001.8,N,0.0,0.0
1478529275.6,286047005.5,N,0.0,0.0
1478529295.5,286047003.3,N,0.0,0.0
1478529315.3,286047001.8,N,0.0,0.0
1478529335.1,286047000.1,N,0.0,0.0
1478529355.9,286046999.7,N,0.0,0.0
1478529375.7,286047005.6,N,0.0,0.0
1478529395.5,286046999.7,N,0.0,0.0
1478529415.4,286047005.4,N,0.0,0.0
1478529435.2,286046998.2,N,0.0,0.0
1478529455.0,286047004.0,N,0.0,0.0
1478529456.0,286047004.0,N,0.0,0.0
1478529475.8,286047000.2,N,0.0,0.0
1478529495.6,286047005.2,N,0.0,0.0
1478529515.5,286046999.2,N,0.0,0.0
1478529535.3,286046999.7,N,0.0,0.0
1478529555.1,286047004.1,N,0.0,0.0
1478529575.9,286047000.4,N,0.0,0.0
1478529595.7,286046996.9,N,0.0,0.0
1478529615.5,286047001.6,N,0.0,0.0
1478529635.4,286046999.8,N,0.0,0.0
1478529655.2,286047003.5,N,0.0,0.0
1478529675.0,286047002.7,N,0.0,0.0
1478529675.9,286047002.7,N,0.0,0.0
1478529695.8,286047000.2,N,0.0,0.0
1478529715.6,286047001.3,N,0.0,0.0
1478529735.5,286047002.5,N,0.0,0.0
1478529755.3,286047000.9,N,0.0,0.0
1478529775.1,286047002.2,N,0.0,0.0
1478529795.9,286047005.5,N,0.0,0.0
1478529815.7,286047001.1,N,0.0,0.0
1478529835.5,286047000.8,N,0.0,0.0
1478529855.4,286047000.1,N,0.0,0.0
1478529875.2,286046999.4,N,0.0,0.0
1478529895.0,286046999.2,N,0.0,0.0
1478529895.9,286046999.2,N,0.0,0.0
1478529915.8,286046995.1,N,0.0,0.0
1478529935.6,286046997.5,N,0.0,0.0
1478529955.5,286047001.2,N,0.0,0.0
1478529975.3,286046996.5,N,0.0,0.0
1478529995.1,286046995.4,N,0.0,0.0
1478530015.9,286046994.9,N,0.0,0.0
1478530035.7,286046997.1,N,0.0,0.0
1478530055.5,286046995.7,N,0.0,0.0
1478530075.4,286046999.4,N,0.0,0.0
1478530095.2,286046995.3,N,0.0,0.0
1478530115.0,286046995.6,N,0.0,0.0
1478530115.9,286046995.6,N,0.0,0.0
1478530135.8,286046996.1,N,0.0,0.0
1478530155.6,286046997.3,N,0.0,0.0
1478530175.5,286046995.4,N,0.0,0.0
1478530195.3,286046996.0,N,0.0,0.0
1478530215.1,286046995.9,N,0.0,0.0
1478530235.9,286046997.1,N,0.0,0.0
1478530255.7,286046993.4,N,0.0,0.0
1478530275.5,286046995.0,N,0.0,0.0
1478530295.4,286046996.0,N,0.0,0.0
1478530315.2,286046994.5,N,0.0,0.0
1478530335.0,286046992.1,N,0.0,0.0
1478530335.9,286046992.1,N,0.0,0.0
1478530355.8,286046991.9,N,0.0,0.0
1478530375.6,286046990.3,N,0.0,0.0
1478530395.5,286046994.7,N,0.0,0.0
1478530415.3,286046992.1,N,0.0,0.0
1478530435.1,286046988.8,Y,0.0,0.0
1478530455.9,286046994.9,N,0.0,0.0
1478530475.7,286046992.5,N,0.0,0.0
1478530495.5,286046994.8,N,0.0,0.0
1478530515.4,286046995.4,N,0.0,0.0
1478530535.2,286046997.9,N,0.0,0.0
1478530555.1,286046996.2,N,0.0,0.0
1478530556.0,286046996.2,N,0.0,0.0
1478530575.8,286046994.8,N,0.0,0.0
1478530595.6,286046994.3,N,0.0,0.0
1478530615.5,286046994.8,N,0.0,0.0
1478530635.3,286046993.4,N,0.0,0.0
1478530655.1,286046995.7,N,0.0,0.0
1478530675.9,286047001.2,N,0.0,0.0
1478530695.7,286046996.7,N,0.0,0.0
1478530715.6,286046996.5,N,0.0,0.0
1478530735.4,286046995.3,N,0.0,0.0
1478530755.2,286046998.0,N,0.0,0.0
1478530775.1,286046995.1,N,0.0,0.0
1478530776.0,286046995.1,N,0.0,0.0
1478530795.8,286046997.1,N,0.0,0.0
